Dewpoint
49 51 52 52 53 53 52 52 53 53 51 51 50 49 49 50 49 50 51 52 53 54 56 55 55 55 55 57 58 56 58 58 57 57 56 56 56 56 58 58 57 58 58 57 56 53 50 50 51 53 55 56 59 59 59 59 60 60 60 60 61 63 64
51 52 53 54 52 52 52 52 50 49 48 49 49 49 49 50 51 48 49 50 51 52 53 51 51 52 52 52 51 52 53 54 57 57 56 54 55 54 56 57 58 57 57 56 56 55 52 50 48 49 49 50 53 54 55 58 59 60 60 61 61 61 61
52 52 52 51 50 52 51 49 49 48 47 49 50 50 48 48 48 50 50 50 51 51 50 47 48 49 50 50 50 50 50 49 50 48 48 48 49 50 54 55 53 50 47 43 45 48 49 51 51 50 47 44 44 48 52 48 48 52 59 61 61 60 59
51 51 50 49 51 51 49 49 48 47 49 49 49 49 49 51 51 52 49 49 50 52 49 48 49 50 50 49 49 48 47 47 47 46 47 47 47 46 45 45 45 44 43 42 42 45 44 42 42 43 44 44 44 44 46 46 49 48 53 59 60 60 60
51 50 49 50 51 49 48 48 48 48 48 48 48 48 49 50 50 49 50 49 50 50 50 50 50 49 49 48 48 48 47 47 47 46 44 44 44 45 45 45 45 46 45 44 44 44 43 43 42 42 41 43 43 43 44 46 47 45 49 51 52 54 56
50 50 50 51 51 48 48 48 47 47 47 47 47 48 48 49 48 46 46 47 47 49 48 47 47 47 47 47 47 46 46 45 45 45 44 44 43 42 43 44 43 43 44 44 45 45 45 44 42 40 41 43 41 43 44 44 44 45 45 45 45 45 46
50 50 51 51 50 48 48 47 46 47 47 46 47 47 49 50 48 48 48 49 49 49 48 47 47 48 48 48 48 48 48 48 47 46 45 45 45 44 42 41 41 42 43 45 45 45 44 43 42 41 41 42 43 43 43 43 44 43 43 44 44 43 43
49 50 51 51 49 49 48 46 46 47 47 48 47 47 52 49 49 49 49 47 47 48 49 50 49 49 50 50 50 50 49 48 47 47 46 45 45 44 43 41 42 43 44 44 44 44 45 44 44 43 41 39 39 40 42 44 44 43 43 43 44 41 41
50 50 51 51 50 50 48 46 47 47 48 48 48 50 51 49 49 49 49 48 49 49 49 48 48 48 48 48 48 47 48 51 46 45 44 44 45 45 45 42 41 42 44 43 43 43 45 45 45 44 44 41 38 37 40 40 41 42 44 41 44 43 40
49 48 50 50 50 50 49 48 47 47 49 48 49 51 51 48 48 48 48 48 48 48 48 48 47 47 48 48 46 47 47 48 47 45 46 44 46 45 45 43 40 41 45 46 45 46 47 45 45 44 43 42 42 38 38 38 38 40 42 42 41 43 41
49 48 49 50 50 50 49 49 49 49 49 49 50 52 50 48 49 53 48 48 48 48 49 49 48 48 47 47 47 47 49 49 49 48 48 47 47 46 46 46 45 41 46 44 43 46 47 46 44 43 43 44 43 41 40 37 38 41 42 42 43 41 40
50 48 49 50 50 50 49 49 49 49 49 49 51 51 49 48 50 49 48 48 48 48 49 48 48 48 47 47 47 47 47 47 47 46 47 46 46 46 44 44 46 43 47 46 45 46 46 46 45 43 43 43 45 44 42 40 35 39 44 39 42 43 41
50 50 49 50 49 50 50 50 50 50 49 50 51 50 48 48 49 48 48 49 48 49 49 49 47 48 46 47 48 46 47 46 46 45 45 47 46 46 44 42 44 42 43 41 42 45 46 46 46 42 43 42 42 44 44 40 37 37 41 41 41 41 40
51 50 49 50 49 50 50 51 51 50 49 49 51 50 49 49 49 48 48 49 48 48 48 49 47 48 46 46 46 45 46 47 46 45 46 44 45 44 45 44 42 42 43 42 43 40 40 41 43 43 45 43 41 42 41 39 37 38 39 43 43 41 42
55 54 51 50 49 50 50 51 51 51 48 49 51 49 49 50 50 49 48 49 48 49 48 49 48 47 48 45 46 46 45 47 45 44 44 42 43 45 44 43 44 43 44 40 41 36 40 39 37 35 38 42 41 41 43 41 39 39 36 39 40 42 42
54 53 54 51 51 52 52 53 52 50 48 49 51 50 50 50 50 49 49 49 48 49 48 49 49 46 48 46 45 47 46 45 45 44 43 42 43 44 43 43 42 44 44 36 40 42 43 42 40 37 39 41 39 40 41 41 39 37 38 38 42 37 37
54 54 53 54 53 55 54 54 54 50 49 50 51 51 50 50 51 50 50 50 49 49 49 49 48 47 46 47 44 46 47 44 44 44 43 42 42 42 41 39 41 44 43 37 39 41 43 42 41 41 40 40 39 39 41 40 40 38 40 37 38 36 37
53 53 53 54 54 54 52 54 54 53 52 51 52 52 52 51 51 51 51 51 51 50 49 49 48 47 47 47 46 45 46 44 42 44 44 42 44 41 41 39 40 44 42 39 41 41 41 42 41 39 36 35 35 39 39 38 38 37 35 33 35 39 39
53 54 55 55 55 55 55 55 55 55 53 52 53 52 52 52 51 51 51 51 51 51 51 50 49 48 47 47 47 46 46 44 43 43 44 43 43 42 41 41 41 44 42 39 40 42 42 42 38 35 35 34 33 36 36 36 36 35 33 33 33 33 35
54 55 56 56 56 56 56 55 55 54 54 52 53 53 52 52 52 52 52 53 53 53 53 53 53 51 50 49 48 47 46 45 43 43 44 43 42 43 41 41 42 44 42 40 41 42 41 39 38 36 38 36 35 34 34 35 33 30 31 30 32 33 31
54 55 55 56 56 56 56 55 55 54 54 52 53 53 53 53 53 52 52 50 49 49 50 53 54 53 53 52 50 48 47 46 44 43 44 44 43 43 42 43 43 43 42 41 41 41 36 33 34 33 37 36 35 32 33 34 32 30 29 30 30 29 32
52 53 55 56 54 54 55 55 55 55 53 52 53 53 53 53 53 52 52 51 50 49 50 51 52 51 51 51 50 49 48 46 45 43 43 44 44 42 42 42 41 41 45 46 43 42 38 36 30 25 33 38 38 32 31 33 33 30 30 31 30 32 32
53 52 53 54 56 55 54 55 56 55 55 54 53 53 52 53 52 50 50 50 50 50 51 52 51 48 48 50 49 48 48 47 45 44 44 43 43 41 40 40 43 47 46 44 41 37 35 37 38 32 29 30 35 31 30 28 29 32 32 30 30 31 30
52 51 50 51 53 54 53 53 53 52 51 52 54 53 53 52 52 51 50 49 50 51 52 53 48 46 44 44 49 49 48 47 46 45 44 43 42 41 40 40 43 45 43 41 36 33 34 36 37 37 37 37 38 32 30 28 30 31 30 31 32 31 30
49 50 49 49 49 50 50 50 51 52 52 53 53 53 52 52 50 50 50 50 49 49 50 47 40 41 41 42 43 48 49 47 47 46 44 43 41 39 39 40 40 40 35 32 29 30 33 35 35 35 35 36 36 37 38 32 32 29 30 28 29 30 31
43 43 44 45 46 47 46 46 46 47 47 49 50 50 50 50 50 49 50 50 49 48 49 39 37 39 39 40 41 43 48 48 47 46 45 46 41 38 38 40 39 39 36 41 39 29 30 32 36 35 34 35 35 35 33 33 35 34 31 29 30 30 30
41 41 42 42 42 42 43 43 45 46 46 47 47 47 48 48 48 49 49 49 45 41 39 39 37 39 40 40 40 41 47 48 47 47 48 47 42 38 40 40 39 40 39 41 36 31 32 32 34 33 32 32 33 36 36 35 34 35 36 33 31 29 32
41 40 40 40 41 42 41 41 41 43 44 44 44 45 46 46 47 46 45 43 39 36 37 38 38 38 39 40 42 43 47 46 46 47 46 45 43 41 42 43 40 39 39 40 40 37 35 34 34 35 33 32 32 33 34 34 35 35 36 35 33 32 33
38 39 39 40 40 39 41 41 39 41 41 41 43 42 42 44 45 43 42 39 35 33 35 37 37 37 38 39 40 43 44 44 44 43 43 42 44 42 41 41 42 41 41 41 41 38 38 37 35 34 34 34 35 37 36 38 38 38 38 36 35 35 36
38 38 38 37 37 38 38 37 36 39 34 37 40 41 41 43 44 44 41 37 34 32 33 36 37 37 37 37 38 39 40 41 42 42 43 43 42 42 42 41 41 40 39 35 36 34 35 38 37 35 34 35 36 35 35 35 37 36 35 35 34 34 34
38 39 38 36 37 38 39 39 38 39 36 37 38 40 42 43 43 43 41 37 34 32 32 35 37 37 37 37 38 37 38 39 40 40 39 41 43 42 41 46 44 37 35 35 34 35 36 37 34 34 33 32 32 32 32 34 34 34 34 34 33 33 33
38 39 38 38 39 38 39 38 37 39 39 39 39 41 42 42 41 40 39 37 39 33 33 35 37 37 37 38 39 38 37 35 34 34 36 37 37 35 34 37 40 37 35 35 33 33 33 33 31 31 31 30 31 30 29 31 31 30 30 30 30 30 30
39 39 38 38 39 39 40 39 38 38 38 38 39 40 41 40 40 39 38 36 35 32 32 33 37 37 37 37 38 38 36 34 32 31 33 35 35 32 32 33 34 33 33 32 32 32 32 32 31 32 31 29 28 28 30 30 33 31 30 30 30 30 32
38 39 39 38 39 40 40 38 38 37 36 39 40 40 39 38 39 37 37 35 33 31 32 33 35 36 37 37 37 36 34 33 31 31 33 34 34 32 31 32 33 34 32 32 32 32 33 33 33 33 31 28 29 31 33 29 32 34 30 32 32 31 31
37 39 40 40 39 39 39 39 38 38 38 38 40 39 37 37 36 35 35 35 34 33 34 34 32 35 36 37 36 34 32 33 34 35 36 35 33 32 31 31 31 33 33 33 32 32 32 32 33 37 33 32 32 33 32 34 31 30 29 30 29 30 30
35 39 38 38 36 36 38 39 38 38 38 39 38 37 36 35 35 34 33 33 32 31 31 33 34 34 36 36 35 34 33 34 36 37 34 34 33 33 32 32 34 34 33 33 32 32 32 32 33 33 33 33 33 33 33 31 31 29 28 29 29 29 30
36 35 35 36 35 34 34 36 38 38 38 39 37 36 34 34 34 33 32 31 31 30 30 30 33 33 32 33 34 34 34 35 36 36 35 35 36 35 32 33 36 34 33 33 32 32 32 32 32 32 33 33 33 33 31 31 29 29 29 29 29 29 29